Date String (YYYY-MM-DD hh:mm:ss) UTC,Instrument flags,Ambient pressure (hPa),Sample flow (lpm),Bypass flow (lpm),Sample temperature (°C),Ambient temperature (°C),ASC tube jacket temperature (°C),LED temperature (°C),Box temperature (°C),Sample RH (%),Span deviation,Mass concentration (μg/m³),Mass concentration (μg/m³),Mass concentration (μg/m³)
DateTimeUTC,F1_M11,P_M11,Q1_M11,Q2_M11,T1_M11,T2_M11,T3_M11,T4_M11,T5_M11,U1_M11,ZSPAN_M11,X0_M11,X2_M11,X1_M11
2022-02-12 02:00:00,,0833.1,4.99,0.00,22.1,21.4,00.0,31.1,23.9,14.4,0000.0,0002.82,0000.86,0000.55
2022-02-12 02:01:00,,0833.1,4.99,0.00,22.1,21.3,00.0,31.1,23.9,14.4,0000.0,0002.86,0000.88,0000.54
2022-02-12 02:02:00,,0833.1,5.01,0.00,22.1,21.3,00.0,31.1,23.9,14.4,0000.0,0002.87,0000.88,0000.54
2022-02-12 02:03:00,,0833.1,4.99,0.00,22.1,21.3,00.0,31.1,23.9,14.4,0000.0,0002.80,0000.86,0000.55
2022-02-12 02:04:00,,0833.1,5.02,0.00,22.1,21.3,00.0,31.1,23.8,14.4,0000.0,0001.70,0000.88,0000.56
2022-02-12 02:05:00,,0833.1,5.00,0.00,22.1,21.3,00.0,31.1,23.8,14.4,0000.0,0001.70,0000.89,0000.56
2022-02-12 02:06:00,,0833.1,4.98,0.00,22.1,21.3,00.0,31.1,23.8,14.5,0000.0,0001.63,0000.88,0000.55
2022-02-12 02:07:00,,0833.1,5.02,0.00,22.0,21.2,00.0,31.1,23.8,14.5,0000.0,0001.65,0000.89,0000.55
2022-02-12 02:08:00,,0833.1,4.99,0.00,22.0,21.2,00.0,31.1,23.8,14.5,0000.0,0001.59,0000.86,0000.54
2022-02-12 02:09:00,,0833.1,5.00,0.00,22.0,21.2,00.0,31.1,23.7,14.5,0000.0,0001.47,0000.82,0000.53
2022-02-12 02:10:00,,0833.2,5.00,0.00,22.0,21.2,00.0,31.0,23.7,14.5,0000.0,0001.39,0000.80,0000.53
2022-02-12 02:11:00,,0833.2,5.02,0.00,22.0,21.2,00.0,31.0,23.7,14.5,0000.0,0001.32,0000.78,0000.53
2022-02-12 02:12:00,,0833.3,5.00,0.00,22.0,21.7,00.0,31.0,23.8,14.5,0000.0,0001.32,0000.79,0000.54
2022-02-12 02:13:00,,0833.3,4.98,0.00,22.2,22.5,00.0,31.1,24.1,14.4,0000.0,0001.34,0000.80,0000.55
2022-02-12 02:14:00,,0833.3,5.00,0.00,22.3,23.0,00.0,31.1,24.3,14.3,0000.0,0001.42,0000.81,0000.54
2022-02-12 02:15:00,,0833.3,5.01,0.00,22.3,22.8,00.0,31.1,24.3,14.3,0000.0,0001.34,0000.78,0000.53
2022-02-12 02:16:00,,0833.3,5.01,0.00,22.4,22.5,00.0,31.2,24.3,14.3,0000.0,0001.23,0000.75,0000.53
2022-02-12 02:17:00,,0833.3,4.99,0.00,22.4,22.3,00.0,31.2,24.3,14.3,0000.0,0001.27,0000.76,0000.55
2022-02-12 02:18:00,,0833.3,5.00,0.00,22.4,22.1,00.0,31.2,24.2,14.3,0000.0,0001.33,0000.78,0000.56
2022-02-12 02:19:00,,0833.3,5.00,0.00,22.4,22.0,00.0,31.2,24.2,14.3,0000.0,0001.40,0000.81,0000.57
2022-02-12 02:20:00,,0833.3,5.02,0.00,22.4,21.9,00.0,31.2,24.2,14.3,0000.0,0001.46,0000.86,0000.60
2022-02-12 02:21:00,,0833.4,4.99,0.00,22.3,21.8,00.0,31.2,24.1,14.3,0000.0,0001.50,0000.88,0000.63
2022-02-12 02:22:00,,0833.3,5.00,0.00,22.3,21.7,00.0,31.2,24.1,14.3,0000.0,0001.54,0000.92,0000.67
2022-02-12 02:23:00,,0833.4,5.00,0.00,22.3,21.7,00.0,31.2,24.1,14.3,0000.0,0001.61,0000.98,0000.72
2022-02-12 02:24:00,,0833.4,4.99,0.00,22.3,21.6,00.0,31.2,24.1,14.3,0000.0,0001.76,0001.08,0000.81
2022-02-12 02:25:00,,0833.4,4.99,0.00,22.3,21.5,00.0,31.2,24.1,14.3,0000.0,0001.93,0001.19,0000.90
2022-02-12 02:26:00,,0833.4,5.00,0.00,22.3,21.5,00.0,31.2,24.1,14.4,0000.0,0002.00,0001.25,0000.96
2022-02-12 02:27:00,,0833.4,5.00,0.00,22.3,21.5,00.0,31.2,24.0,14.4,0000.0,0002.03,0001.29,0001.01
2022-02-12 02:28:00,,0833.4,4.99,0.00,22.3,21.5,00.0,31.2,24.0,14.4,0000.0,0001.96,0001.29,0001.03
2022-02-12 02:29:00,,0833.4,5.01,0.00,22.2,21.5,00.0,31.2,24.0,14.4,0000.0,0001.86,0001.26,0001.05
2022-02-12 02:30:00,,0833.5,4.99,0.00,22.2,21.3,00.0,31.2,23.9,14.4,0000.0,0001.90,0001.28,0001.06
2022-02-12 02:31:00,,0833.4,5.00,0.00,22.2,21.3,00.0,31.2,23.9,14.4,0000.0,0001.95,0001.30,0001.07
2022-02-12 02:32:00,,0833.5,5.01,0.00,22.2,21.3,00.0,31.2,23.9,14.4,0000.0,0002.04,0001.35,0001.13
2022-02-12 02:33:00,,0833.5,4.98,0.00,22.1,21.3,00.0,31.1,23.8,14.4,0000.0,0002.19,0001.42,0001.17
2022-02-12 02:34:00,,0833.4,5.00,0.00,22.1,21.2,00.0,31.1,23.7,14.3,0000.0,0002.27,0001.43,0001.20
2022-02-12 02:35:00,,0833.4,4.99,0.00,22.0,21.2,00.0,31.1,23.7,14.4,0000.0,0002.31,0001.41,0001.19
2022-02-12 02:36:00,,0833.5,5.01,0.00,22.0,21.2,00.0,31.1,23.7,14.4,0000.0,0002.15,0001.37,0001.18
2022-02-12 02:37:00,,0833.6,4.99,0.00,22.0,21.2,00.0,31.1,23.7,14.4,0000.0,0002.27,0001.40,0001.18
2022-02-12 02:38:00,,0833.6,5.01,0.00,22.0,21.6,00.0,31.1,23.8,14.4,0000.0,0002.28,0001.40,0001.18
2022-02-12 02:39:00,,0833.6,4.99,0.00,22.1,22.5,00.0,31.1,24.0,14.2,0000.0,0002.38,0001.45,0001.19
2022-02-12 02:40:00,,0833.6,5.01,0.00,22.3,23.0,00.0,31.2,24.3,14.0,0000.0,0002.57,0001.49,0001.18
2022-02-12 02:41:00,,0833.6,5.00,0.00,22.3,22.8,00.0,31.2,24.3,13.9,0000.0,0002.59,0001.49,0001.17
2022-02-12 02:42:00,,0833.6,5.00,0.00,22.3,22.5,00.0,31.2,24.2,13.8,0000.0,0002.73,0001.51,0001.16
2022-02-12 02:43:00,,0833.6,5.00,0.00,22.3,22.2,00.0,31.2,24.1,13.8,0000.0,0002.97,0001.48,0001.10
2022-02-12 02:44:00,,0833.6,4.99,0.00,22.3,22.0,00.0,31.2,24.1,13.8,0000.0,0002.93,0001.41,0001.04
2022-02-12 02:45:00,,0833.7,4.99,0.00,22.3,21.9,00.0,31.2,24.1,13.8,0000.0,0002.80,0001.36,0000.98
2022-02-12 02:46:00,,0833.7,5.01,0.00,22.3,21.7,00.0,31.2,24.0,13.8,0000.0,0002.64,0001.32,0000.93
2022-02-12 02:47:00,,0833.7,5.00,0.00,22.2,21.7,00.0,31.2,24.0,13.8,0000.0,0002.58,0001.27,0000.89
2022-02-12 02:48:00,,0833.7,5.00,0.00,22.2,21.6,00.0,31.2,24.0,13.7,0000.0,0002.46,0001.22,0000.86
2022-02-12 02:49:00,,0833.6,5.00,0.00,22.2,21.5,00.0,31.2,24.0,13.7,0000.0,0002.42,0001.19,0000.83
2022-02-12 02:50:00,,0833.7,5.00,0.00,22.2,21.5,00.0,31.2,23.9,13.7,0000.0,0002.35,0001.15,0000.82
2022-02-12 02:51:00,,0833.7,5.00,0.00,22.2,21.4,00.0,31.2,23.9,13.7,0000.0,0002.26,0001.12,0000.82
2022-02-12 02:52:00,,0833.6,5.00,0.00,22.2,21.4,00.0,31.2,23.9,13.7,0000.0,0002.27,0001.10,0000.83
2022-02-12 02:53:00,,0833.7,4.99,0.00,22.1,21.3,00.0,31.1,23.9,13.7,0000.0,0002.21,0001.11,0000.82
2022-02-12 02:54:00,,0833.7,5.01,0.00,22.1,21.3,00.0,31.1,23.8,13.6,0000.0,0002.96,0001.10,0000.82
2022-02-12 02:55:00,,0833.7,4.99,0.00,22.1,21.3,00.0,31.1,23.8,13.6,0000.0,0003.00,0001.07,0000.80
2022-02-12 02:56:00,,0833.7,4.99,0.00,22.1,21.2,00.0,31.1,23.8,13.5,0000.0,0003.02,0001.06,0000.79
2022-02-12 02:57:00,,0833.7,5.02,0.00,22.1,21.6,00.0,31.1,23.9,13.5,0000.0,0003.04,0001.03,0000.78
2022-02-12 02:58:00,,0833.8,4.98,0.00,22.2,22.4,00.0,31.2,24.1,13.4,0000.0,0003.01,0001.01,0000.76
2022-02-12 02:59:00,,0833.8,5.01,0.00,22.4,23.1,00.0,31.2,24.3,13.2,0000.0,0002.95,0000.98,0000.72
